[Iaude] MPEC V70: 2023 VX1 [a=1.44,e=0.55,i=19.9,H=25.4]

mpec at marsden.cfa.harvard.edu mpec at marsden.cfa.harvard.edu
Mon Nov 6 10:42:09 EST 2023


M.P.E.C. 2023-V70                              Issued 2023 November 6, 15:40 UT

     The Minor Planet Electronic Circulars contain information on unusual
         minor planets, routine data on comets and natural satellites,
         and occasional editorial announcements.  They are published
    on behalf of Division F of the International Astronomical Union by the
          Minor Planet Center, Smithsonian Astrophysical Observatory,
                          Cambridge, MA 02138, U.S.A.
			  
             Prepared using the Tamkin Foundation Computer Network

                              MPC at CFA.HARVARD.EDU
            URL https://www.minorplanetcenter.net/    ISSN 1523-6714

                                    2023 VX1                                    


Observations:
     K23V01X*1C2023 11 05.29908302 46 16.518+13 44 46.25         19.70GVEV070703
     K23V01X 1C2023 11 05.30984702 46 04.246+13 48 52.81         19.32GVEV070703
     K23V01X 1C2023 11 05.31522202 45 58.018+13 50 56.00         19.01GVEV070703
     K23V01X KB2023 11 05.33333 02 45 35.01 +13 57 20.8          18.8 GVEV070734
     K23V01X KB2023 11 05.33454 02 45 33.60 +13 57 48.1          18.9 GVEV070734
     K23V01X KB2023 11 05.33575 02 45 32.27 +13 58 14.8          19.1 GVEV070734
     K23V01X  C2023 11 05.35711402 45 04.29 +14 09 27.6                WEV070X09
     K23V01X KB2023 11 05.36411 02 45 00.35 +14 08 47.2          18.8 GVEV070734
     K23V01X  C2023 11 05.36411302 44 56.65 +14 12 00.2                WEV070X09
     K23V01X KB2023 11 05.36573 02 44 58.56 +14 09 22.2          18.7 GVEV070734
     K23V01X KB2023 11 05.36734 02 44 56.76 +14 09 58.4          18.7 GVEV070734
     K23V01X KC2023 11 05.46022502 43 16.669+14 43 51.24         18.88GVEV070I52
     K23V01X KC2023 11 05.46073802 43 16.129+14 44 01.97         18.93GVEV070I52
     K23V01X KC2023 11 05.46125002 43 15.596+14 44 13.13         18.97GVEV070I52
     K23V01X KC2023 11 05.46176102 43 15.035+14 44 23.89         18.95GVEV070I52
     K23V01X KC2023 11 05.82639 02 37 36.31 +16 44 43.3          18.9 GVEV070587
     K23V01X KC2023 11 05.83280 02 37 30.21 +16 46 42.4                VEV070587
     K23V01X KC2023 11 05.83742902 37 25.37 +16 48 12.0          18.6 GVEV070L01
     K23V01X KC2023 11 05.83891102 37 23.97 +16 48 39.8          18.5 GVEV070L01
     K23V01X KC2023 11 05.83921 02 37 24.11 +16 48 42.0                VEV070587
     K23V01X KC2023 11 05.84039302 37 22.52 +16 49 07.0          18.4 GVEV070L01
     K23V01X KC2023 11 05.84187402 37 21.10 +16 49 34.4          18.5 GVEV070L01
     K23V01X KC2023 11 05.84335802 37 19.71 +16 50 02.0          18.7 GVEV070L01
     K23V01X  C2023 11 05.84766 02 37 15.45 +16 54 51.9          19.2 GVEV070M28
     K23V01X  C2023 11 05.84967 02 37 13.53 +16 55 28.4          18.6 GVEV070M28
     K23V01X  C2023 11 05.85168 02 37 11.61 +16 56 05.2          18.8 GVEV070M28
     K23V01X KC2023 11 05.87766402 36 47.77 +17 00 29.2          19.7 GVEV070203
     K23V01X KC2023 11 05.88518202 36 40.06 +17 02 46.5          19.9 GXEV070595
     K23V01X KC2023 11 05.89375102 36 32.60 +17 05 21.7          19.3 GVEV070203
     K23V01X KC2023 11 05.89635 02 36 28.09 +17 06 08.1          19.2 VqEV070L04
     K23V01X KC2023 11 05.90079 02 36 23.87 +17 07 27.5          19.3 VqEV070L04
     K23V01X KC2023 11 05.90505902 36 21.31 +17 08 45.6          19.6 GXEV070595
     K23V01X KC2023 11 05.90974802 36 17.57 +17 10 10.0          19.4 GVEV070203
     K23V01X KC2023 11 05.91523 02 36 11.70 +17 12 06.2          19.5 VqEV070L90
     K23V01X KC2023 11 05.91847202 36 08.69 +17 12 46.3          20.0 GXEV070595
     K23V01X KC2023 11 05.92181 02 36 05.49 +17 14 04.6          19.0 VqEV070L90
     K23V01X KC2023 11 05.92828 02 35 59.38 +17 15 59.5          19.4 VqEV070L90
     K23V01X 0B2023 11 05.93338 02 35 54.41 +17 20 18.3          19.0 VZEV070M49
     K23V01X 0B2023 11 05.94113 02 35 47.05 +17 22 35.1          19.3 VZEV070M49
     K23V01X 0B2023 11 05.94883 02 35 39.75 +17 24 50.9          19.6 VZEV070M49
     K23V01X KC2023 11 06.07000 02 33 50.88 +17 56 22.7                VEV070204
     K23V01X KC2023 11 06.07563 02 33 45.92 +17 57 56.4          19.3 GVEV070204
     K23V01X KC2023 11 06.08033 02 33 41.77 +17 59 14.8                VEV070204
     K23V01X KC2023 11 06.14215802 33 00.03 +18 16 39.7          19.5 GVEV070H21
     K23V01X KC2023 11 06.14495502 32 57.58 +18 17 25.9          19.7 GVEV070H21
     K23V01X KC2023 11 06.14775202 32 55.14 +18 18 11.7          19.6 GVEV070H21
     K23V01X KC2023 11 06.15334602 32 50.26 +18 19 43.8          19.7 GVEV070H21
     K23V01X KB2023 11 06.23420 02 31 41.32 +18 41 26.7          18.8 GVEV070734
     K23V01X KB2023 11 06.23912 02 31 37.09 +18 42 45.2          18.7 GVEV070734
     K23V01X KB2023 11 06.24392 02 31 33.03 +18 44 00.7          18.8 GVEV070734

Observer details:
203 GiaGa Observatory.  Observers S. Foglia, G. Galli.  Measurer G. Galli.
    0.36-m f/5.76 Schmidt-Cassegrain + CCD.
204 Schiaparelli Observatory.  Observers L. Buzzi, G. Galli.  0.84-m f/3.5
    reflector + CCD.
587 Sormano.  Observers F. Manca, A. Testa.  Measurer F. Manca.  0.5-m f/6.8
    reflector + CCD.
595 Farra d'Isonzo.  Observers F. Bressan, E. Pettarin.  Measurer E.
    Pettarin.  0.61-m f/4.5 reflector + CCD.
703 Catalina Sky Survey.  Observer G. J. Leonard.  Measurers E. C. Beshore, D.
    Fay, J. B. Fazekas, D. C. Fuls, A. R. Gibbs, A. D. Grauer, H. Groeller, J.
    K. Hogan, R. A. Kowalski, S. M. Larson, G. J. Leonard, D. Rankin, R. L.
    Seaman, F. C. Shelly, K. W. Wierzchos.  0.68-m Schmidt + 10K CCD.
734 Farpoint Observatory, Eskridge.  Observers D. Cromer, G. Hug, D. Goodin,
    R. Valentine.  Measurer G. Hug.  0.69-m f/3.54 reflector + CMO.
H21 Astronomical Research Observatory, Westfield.  Observer R. Holmes.
    Measurers T. Linder, R. Holmes, L. Horn.  0.76-m f/3.0 astrograph + CCD.
I52 Steward Observatory, Mt. Lemmon Station.  Observer R. A. Kowalski.
    Measurers E. C. Beshore, D. Fay, J. B. Fazekas, D. C. Fuls, A. R. Gibbs,
    A. D. Grauer, H. Groeller, J. K. Hogan, R. A. Kowalski, S. M. Larson, G.
    J. Leonard, D. Rankin, R. L. Seaman, F. C. Shelly, K. W. Wierzchos.  1.0-m
    prime focus + CCD.
L01 Visnjan Observatory, Tican.  Observer K. Korlevic.  1.0-m f/2.9 reflector
    + CCD.
L04 ROASTERR-1 Observatory, Cluj-Napoca.  Observer L. Hudin.  0.3-m f/5
    reflector + CCD.
L90 ABObservatory, Rosarno.  Observer A. Brosio.  0.30-m f/4.0 reflector +
    CCD.
M28 Lesedi Telescope-SAAO Observatory, Sutherland.  Observers N. Erasmus, S.
    Potter, C. van Gend, S. Chandra, H. Worters.  Measurers T. Ngwane, N.
    Erasmus.  1.0-m f/8 Reflector + CCD.
M49 IAS Remote Observatory, Hakos.  Observers D. Husar, M. Junius.  Measurer
    D. Husar.  0.25-m f/4.5 reflector + CMO.
X09 Deep Random Survey, Rio Hurtado.  Observers A. Schnabel, D. Ruhela.
    Measurer S. Deen.  0.43-m reflector + CMOS.

Orbital elements:
2023 VX1                                                 Earth MOID = 0.0194 AU
Epoch 2023 Sept. 13.0 TT = JDT 2460200.5                Veres                   
M   2.00996              (2000.0)            P               Q                  
n   0.57209101     Peri.  266.43659     +0.58956332     +0.77415243             
a   1.4371187      Node    42.60716     -0.53718451     +0.58885673             
e   0.5477513      Incl.   19.90136     -0.60319806     +0.23224074             
P   1.72           H   25.48          G   0.15           U   8                  
Residuals in seconds of arc
231105 703 (2.5-  1.6-)   231105 L01  0.5-  0.1-    231105 595  0.2-  0.4+
231105 703  0.2+  0.3-    231105 L01  0.3-  0.3+    231105 L90  2.1+  0.8-
231105 703  0.1-  0.8+    231105 587  0.4-  0.2+    231105 L90  2.0+  1.1-
231105 734  0.5+  0.6-    231105 L01  0.9-  0.0     231105 M49  0.1-  0.2-
231105 734  0.1-  0.5-    231105 L01  1.0-  0.0     231105 M49  0.1-  0.3-
231105 734  0.5+  0.9-    231105 L01  0.7-  0.1+    231105 M49  0.1-  0.1-
231105 X09  0.5-  1.7+    231105 M28  1.9-  1.5+    231106 204  0.1+  0.0
231105 734  0.3-  0.4+    231105 M28  1.6-  1.0+    231106 204  0.2+  0.1-
231105 X09  0.2+  0.3+    231105 M28  1.4-  0.8+    231106 204  0.0   0.1+
231105 734  0.0   0.3-    231105 203  0.1-  0.3-    231106 H21  0.1-  0.0
231105 734  0.2-  0.3+    231105 595  0.0   0.1+    231106 H21  0.1-  0.1+
231105 I52  0.1-  0.1-    231105 203  0.1+  0.1+    231106 H21  0.0   0.1-
231105 I52  0.0   0.2-    231105 L04  0.2-  0.4+    231106 H21  0.2+  0.1+
231105 I52  0.2+  0.1+    231105 L04  0.7-  0.1-    231106 734  0.2-  0.4-
231105 I52  0.1-  0.1+    231105 595  0.0   0.1+    231106 734  0.3-  0.3+
231105 587  0.0   0.2-    231105 203  0.5+  0.1+    231106 734  0.4+  0.0
231105 587  0.2-  0.5-    231105 L90  2.0+  1.7-

Ephemeris:
2023 VX1                 a,e,i = 1.44, 0.55, 20                  q = 0.6499
Date    TT    R. A. (2000) Decl.     Delta      r    Elong.  Phase     V
2023 10 07    12 53 48.1 -40 25 58   0.2996  0.7746    35.3   131.8    28.2
...
2023 10 22    12 18 03.7 -47 19 23   0.1248  0.9047    40.8   134.0    26.9
...
2023 10 30    09 25 39.2 -56 21 39   0.04134 0.9792    69.0   108.8    22.6
...
2023 11 05    02 52 01.2 +11 44 18   0.04396 1.0355   175.0     4.8    19.2
2023 11 06    02 34 56.5 +17 37 41   0.05347 1.0449   177.4     2.4    19.5
2023 11 07    02 22 30.8 +21 38 14   0.06360 1.0542   172.1     7.4    20.1
...
2023 11 13    01 48 23.7 +31 16 30   0.1294  1.1101   157.1    20.3    22.3
...
2023 11 21    01 36 03.6 +34 31 06   0.2228  1.1833   148.3    26.1    23.8
...
2023 12 06    01 36 58.7 +35 56 13   0.4105  1.3148   136.7    30.9    25.5

M. P. C. Staff               (C) Copyright 2023 MPC           M.P.E.C. 2023-V70




More information about the Iaude mailing list